Location: Winthrop
(48.4780°N, 120.1850°W)
Time: 00:28:06
(UTC-08:00)

Vanguard 2 - Visible Passes

Search period start: 29 November 2023 00:00
Search period end: 09 December 2023 00:00
Orbit: 553 x 2923 km, 32.9° (Epoch: 28 November)

Date Brightness Start Highest point End Pass type
(mag) Time Alt. Az. Time Alt. Az. Time Alt. Az.
29 Nov 11.6 20:37:41 10° S 20:39:07 12° S 20:39:07 12° S visible
30 Nov 11.5 20:50:47 10° SSW 20:53:58 15° S 20:53:58 15° S visible
01 Dec 11.5 19:04:12 10° SSE 19:07:28 11° SE 19:07:35 11° SE visible
01 Dec 11.4 21:04:35 10° SSW 21:08:49 17° SSW 21:08:49 17° SSW visible
02 Dec 11.3 19:14:17 10° S 19:22:25 15° SE 19:22:25 15° SE visible
02 Dec 11.4 21:18:49 10° SSW 21:23:39 19° SSW 21:23:39 19° SSW visible
03 Dec 11.2 19:26:51 10° S 19:37:14 20° SSE 19:37:14 20° SSE visible
03 Dec 11.3 21:33:23 10° SW 21:38:28 21° SSW 21:38:28 21° SSW visible
04 Dec 11.0 19:40:19 10° SSW 19:52:02 25° SSE 19:52:02 25° SSE visible
04 Dec 11.4 21:48:11 10° SW 21:53:16 21° SW 21:53:16 21° SW visible
05 Dec 11.4 17:52:31 10° SSE 17:58:49 13° SE 18:04:57 10° ESE visible
05 Dec 10.9 19:54:18 10° SSW 20:06:49 29° SSE 20:06:49 29° SSE visible
05 Dec 11.4 22:03:11 10° SW 22:08:02 21° SW 22:08:02 21° SW visible
06 Dec 11.3 18:04:04 10° S 18:13:47 18° SE 18:20:19 14° ESE visible
06 Dec 10.8 20:08:40 10° SW 20:21:34 33° S 20:21:34 33° S visible
06 Dec 11.4 22:18:19 10° WSW 22:22:47 20° SW 22:22:47 20° SW visible
07 Dec 11.1 18:17:02 10° S 18:28:47 22° SE 18:35:02 18° ESE visible
07 Dec 10.8 20:23:18 10° SW 20:36:15 36° S 20:36:15 36° S visible
07 Dec 11.5 22:33:35 10° WSW 22:37:29 19° WSW 22:37:29 19° WSW visible
08 Dec 11.0 18:30:43 10° SSW 18:43:49 27° SSE 18:49:42 22° ESE visible
08 Dec 10.7 20:38:09 10° SW 20:50:55 39° S 20:50:55 39° S visible
08 Dec 11.6 22:48:58 10° WSW 22:52:09 17° WSW 22:52:09 17° WSW visible
